Other Public Products
Issued by NWS Charleston, SC

Current Version | Previous Version | Graphics & Text | Print | Product List | Glossary On
Versions: 1 2 3 4 5 6 7 8 9 10 11 12 13 14 15 16 17 18 19 20 21 22 23 24 25 26 27 28 29 30 31 32 33 34 35 36 37 38 39 40 41 42 43 44 45 46 47 48 49 50
000
FPUS82 KCHS 200112
OPUCHS

TEST...KCHS/KSAV Gateway Observations...TEST
National Weather Service Charleston SC
900 PM EDT WED JUL 19 2017

NOTE: "fair" indicates few or no clouds below 12,000 feet with no
significant weather and/or obstructions to visibility.

SCZ050-WAZ558-NCZ071-TXZ119-213-PAZ071-DCZ001-FLZ074-172-MI076-
NYZ176-178-MAZ016-IL014-TNZ027-NJZ106-GAZ044-MD014-200200-

...Gateway Observations for Charleston International...

CITY           SKY/WX    TMP DP  RH WIND       PRES   REMARKS
Chas Airport   MOCLDY    73  71  93 SW3       30.10R
Seattle        MOSUNNY   76  51  41 W5        30.00F
Charlotte      MOCLDY    76  68  76 S5        30.09R
Dallas DFW     PTCLDY    93  69  45 SE13      30.01S HX  98
Dallas Love    PTCLDY    93  69  45 SE13      30.02F HX  98
Philladelphia  MOCLDY    86  71  60 SW8       30.01R HX  91
Wash National  PTCLDY    89  70  53 SW8       30.02R HX  94
Baltimore      PTCLDY    85  76  74 S3        30.01R HX  94
Miami          CLOUDY    79  74  84 CALM      30.10F
Detroit        PTCLDY    80  71  74 W6        30.05R
Newark         MOCLDY    89  67  47 W10       29.97R HX  92
Laguardia      PTCLDY    88  68  51 VRB5      29.97R HX  91
J F K          PTCLDY    79  75  87 S13       29.99R
Boston Logan   PTCLDY    86  62  44 W12       29.93R
Ft. Lauderdale LGT RAIN  79  75  87 CALM      30.08F
Chicago O`Hare CLOUDY    80  68  66 E7        30.05S
Chicago Midway MOCLDY    79  69  71 E8        30.04S
Houston Bush   PTCLDY    88  74  63 S6        30.05S HX  96
Houston Hobby  PTCLDY    89  75  63 S5        30.05S HX  99
Nashville      MOCLDY    81  71  71 E5        30.10S
Atlanta        PTCLDY    86  68  54 NW7       30.09S

$$

GAZ044-118-TXZ119-213-NCZ071-DCZ001-MDZ014-506-PAZ021-071-NJZ106-
NYZ176-178-MAZ106-OHZ011-021-055-MIZ076-KYZ091-ILZ014-INZ047-
MNZ060-ONZ431-200200-

...Gateway Observations for Savannah International...

CITY           SKY/WX    TMP DP  RH WIND       PRES   REMARKS
Savannah Arpt  TSTM      76  70  82 SE7       30.09F
Atlanta        PTCLDY    86  68  54 NW7       30.09S
Charlotte      MOCLDY    76  68  76 S5        30.09R
Dallas DFW     PTCLDY    93  69  45 SE13      30.01S HX  98
Houston Bush   PTCLDY    88  74  63 S6        30.05S HX  96
Wash National  PTCLDY    89  70  53 SW8       30.02R HX  94
Wash Dulles    MOCLDY    84  70  62 CALM      30.03R
Baltimore      PTCLDY    85  76  74 S3        30.01R HX  94
Philadelphia   MOCLDY    86  71  60 SW8       30.01R HX  91
Newark         MOCLDY    89  67  47 W10       29.97R HX  92
Laguardia      PTCLDY    88  68  51 VRB5      29.97R HX  91
J F K          PTCLDY    79  75  87 S13       29.99R
Boston         PTCLDY    86  62  44 W12       29.93R
Pittsburg      PTCLDY    83  69  62 W5        30.07S
Akron          PTCLDY    81  67  62 W6        30.07S
Cleveland      PTCLDY    83  67  58 W5        30.06S
Cincinnati     PTCLDY    83  65  54 NW3       30.09S
Columbus       CLEAR     81  70  67 W7        30.06S
Detroit        PTCLDY    80  71  74 W6        30.05R
Chicago O`Hare CLOUDY    80  68  66 E7        30.05S
Minneapolis    CLOUDY    72  66  81 S3        29.91F
Indianapolis   PTCLDY    82  72  71 W7        30.07S
Toronto Canada PTCLDY    79  63  57 NW13      30.00S

$$




USA.gov is the U.S. government's official web portal to all federal, state and local government web resources and services.